カタログに戻る

COSMOS 1617

運用中軍事PO
NORAD 15469·PAYLOAD·🇷🇺 Russia

打ち上げ Jan 15, 1985 から Plesetsk Cosmodrome

Loading…

次のパス (今後24時間)

TLE

最新Source: Space-Track

元期: Sep 14, 2026, 16:55 UTC

1 15469U 85003A   26257.70529091  .00000014  00000-0  17666-4 0  9991
2 15469  82.6097  59.0665 0001942  97.7986 274.2237 12.62556076919738

AllMySatでCOSMOS 1617をリアルタイム追跡

Download on the App Store